When you browse on this site, cookies collect data to enhance your experience and personalize the content and advertising you see.
Visit our Privacy Policy to learn more. By continuing to use the site, you agree to this use of cookies and data.
  • In Hungary
  • List of Countries
  • For 7 days
  • Water Temperature
  • Satellite Maps
  • Weather Map
  • News
  • Weather Widgets
  • user-avatar
    Login

    Hourly Weather Luanda

    Today, 19 March, Tuesday

    Time Temperature Precipitation Wind Pressure Humidity
    00:00 +30°C° 0 mm 3 mps 752 mmHg 81%
    01:00 +29°C° 0 mm 3 mps 752 mmHg 83%
    02:00 +29°C° 0.1 mm 3 mps 752 mmHg 84%
    03:00 +29°C° 0.1 mm 3 mps 752 mmHg 85%
    04:00 +29°C° 0.1 mm 3 mps 752 mmHg 87%
    05:00 +29°C° 0.1 mm 3 mps 752 mmHg 87%
    06:00 +28°C° 0.1 mm 3 mps 752 mmHg 88%
    07:00 +28°C° 0.1 mm 2 mps 752 mmHg 88%
    08:00 +29°C° 0 mm 2 mps 752 mmHg 82%
    09:00 +31°C° 0 mm 2 mps 752 mmHg 75%
    10:00 +32°C° 0 mm 2 mps 753 mmHg 69%
    11:00 +34°C° 0 mm 2 mps 752 mmHg 63%
    12:00 +36°C° 0 mm 3 mps 751 mmHg 57%
    13:00 +37°C° 0 mm 3 mps 750 mmHg 51%
    14:00 +37°C° 0 mm 4 mps 750 mmHg 54%
    15:00 +36°C° 0 mm 5 mps 750 mmHg 56%
    16:00 +36°C° 0 mm 5 mps 749 mmHg 59%
    17:00 +34°C° 0 mm 5 mps 750 mmHg 66%
    18:00 +33°C° 0 mm 5 mps 750 mmHg 72%
    19:00 +30°C° 0 mm 5 mps 750 mmHg 79%
    20:00 +30°C° 0 mm 5 mps 751 mmHg 81%
    21:00 +30°C° 0 mm 5 mps 751 mmHg 83%
    22:00 +30°C° 0 mm 4 mps 751 mmHg 84%
    23:00 +29°C° 0.1 mm 4 mps 751 mmHg 85%

    Tomorrow, 20 March, Wednesday

    Time Temperature Precipitation Wind Pressure Humidity
    00:00 +29°C° 0.1 mm 3 mps 751 mmHg 86%
    01:00 +29°C° 0.1 mm 3 mps 751 mmHg 87%
    02:00 +29°C° 0 mm 3 mps 751 mmHg 87%
    03:00 +29°C° 0 mm 3 mps 751 mmHg 87%
    04:00 +29°C° 0 mm 2 mps 751 mmHg 88%
    05:00 +29°C° 0.1 mm 2 mps 751 mmHg 87%
    06:00 +29°C° 0.1 mm 2 mps 752 mmHg 86%
    07:00 +29°C° 0.1 mm 2 mps 752 mmHg 85%
    08:00 +31°C° 0 mm 2 mps 752 mmHg 78%
    09:00 +32°C° 0 mm 1 mps 752 mmHg 70%
    10:00 +34°C° 0 mm 1 mps 753 mmHg 62%
    11:00 +35°C° 0 mm 2 mps 752 mmHg 60%
    12:00 +36°C° 0 mm 3 mps 751 mmHg 58%
    13:00 +37°C° 0 mm 4 mps 751 mmHg 56%
    14:00 +35°C° 0.1 mm 4 mps 750 mmHg 62%
    15:00 +34°C° 0.1 mm 5 mps 750 mmHg 68%
    16:00 +33°C° 0.1 mm 5 mps 750 mmHg 74%
    17:00 +32°C° 4.7 mm 5 mps 751 mmHg 78%
    18:00 +30°C° 4.7 mm 5 mps 751 mmHg 82%
    19:00 +28°C° 4.7 mm 5 mps 752 mmHg 85%
    20:00 +28°C° 1 mm 5 mps 753 mmHg 86%
    21:00 +28°C° 1 mm 5 mps 754 mmHg 86%
    22:00 +28°C° 1 mm 4 mps 754 mmHg 86%
    23:00 +27°C° 0.3 mm 4 mps 754 mmHg 86%

    Day after tomorrow, 21 March, Thursday

    Time Temperature Precipitation Wind Pressure Humidity
    00:00 +27°C° 0.3 mm 3 mps 753 mmHg 87%
    01:00 +27°C° 0.3 mm 2 mps 752 mmHg 87%
    02:00 +27°C° 0.1 mm 2 mps 752 mmHg 86%
    03:00 +27°C° 0.1 mm 2 mps 752 mmHg 86%
    04:00 +27°C° 0.1 mm 3 mps 751 mmHg 85%
    05:00 +27°C° 0 mm 4 mps 752 mmHg 86%
    06:00 +26°C° 0 mm 5 mps 752 mmHg 88%
    07:00 +26°C° 0 mm 5 mps 753 mmHg 89%
    08:00 +27°C° 0 mm 5 mps 753 mmHg 82%
    09:00 +29°C° 0 mm 5 mps 754 mmHg 75%
    10:00 +32°C° 0 mm 4 mps 754 mmHg 68%
    11:00 +30°C° 0 mm 4 mps 753 mmHg 70%
    12:00 +30°C° 0 mm 3 mps 752 mmHg 72%
    13:00 +29°C° 0 mm 2 mps 751 mmHg 74%
    14:00 +30°C° 0 mm 2 mps 751 mmHg 71%
    15:00 +31°C° 0 mm 1 mps 750 mmHg 69%
    16:00 +31°C° 0 mm 1 mps 750 mmHg 66%
    17:00 +30°C° 0 mm 2 mps 750 mmHg 70%
    18:00 +30°C° 0 mm 2 mps 750 mmHg 74%
    19:00 +29°C° 0 mm 3 mps 751 mmHg 78%
    20:00 +28°C° 0 mm 3 mps 751 mmHg 81%
    21:00 +28°C° 0 mm 3 mps 752 mmHg 84%
    22:00 +28°C° 0 mm 2 mps 752 mmHg 86%
    23:00 +28°C° 0 mm 2 mps 752 mmHg 87%

    22 March, Friday

    Time Temperature Precipitation Wind Pressure Humidity
    00:00 +28°C° 0 mm 3 mps 751 mmHg 88%
    01:00 +27°C° 0 mm 3 mps 751 mmHg 89%
    02:00 +27°C° 0 mm 3 mps 751 mmHg 90%
    03:00 +27°C° 0 mm 4 mps 751 mmHg 91%
    04:00 +27°C° 0 mm 4 mps 750 mmHg 92%
    05:00 +27°C° 0 mm 4 mps 751 mmHg 91%
    06:00 +27°C° 0 mm 4 mps 751 mmHg 91%
    07:00 +27°C° 0 mm 3 mps 752 mmHg 90%
    08:00 +29°C° 0 mm 2 mps 752 mmHg 81%
    09:00 +31°C° 0 mm 2 mps 752 mmHg 73%
    10:00 +33°C° 0 mm 1 mps 752 mmHg 64%
    11:00 +35°C° 0 mm 2 mps 752 mmHg 60%
    12:00 +36°C° 0 mm 3 mps 751 mmHg 57%
    13:00 +37°C° 0 mm 3 mps 751 mmHg 53%
    14:00 +36°C° 0 mm 4 mps 750 mmHg 59%
    15:00 +35°C° 0 mm 5 mps 750 mmHg 64%
    16:00 +34°C° 0 mm 5 mps 750 mmHg 70%
    17:00 +33°C° 0 mm 5 mps 750 mmHg 73%
    18:00 +32°C° 0 mm 5 mps 751 mmHg 77%
    19:00 +30°C° 0 mm 5 mps 751 mmHg 80%
    20:00 +30°C° 0 mm 4 mps 752 mmHg 82%
    21:00 +30°C° 0 mm 3 mps 752 mmHg 84%
    22:00 +30°C° 0 mm 1 mps 753 mmHg 85%
    23:00 +29°C° 0 mm 2 mps 752 mmHg 86%

    23 March, Saturday

    Time Temperature Precipitation Wind Pressure Humidity
    00:00 +29°C° 0 mm 3 mps 752 mmHg 86%
    01:00 +29°C° 0 mm 4 mps 752 mmHg 87%
    02:00 +29°C° 0.1 mm 4 mps 751 mmHg 88%
    03:00 +29°C° 0.1 mm 4 mps 751 mmHg 88%
    04:00 +29°C° 0.1 mm 4 mps 751 mmHg 89%
    05:00 +29°C° 0.1 mm 4 mps 751 mmHg 89%
    06:00 +29°C° 0.1 mm 3 mps 752 mmHg 88%
    07:00 +29°C° 0.1 mm 2 mps 752 mmHg 87%
    08:00 +31°C° 0 mm 2 mps 753 mmHg 79%
    09:00 +32°C° 0 mm 1 mps 753 mmHg 72%
    10:00 +32°C° 0 mm 0 mps 753 mmHg 64%
    11:00 +34°C° 0 mm 1 mps 752 mmHg 62%
    12:00 +36°C° 0 mm 3 mps 751 mmHg 60%
    13:00 +37°C° 0 mm 4 mps 751 mmHg 58%
    14:00 +36°C° 0 mm 4 mps 750 mmHg 61%
    15:00 +35°C° 0 mm 5 mps 750 mmHg 65%
    16:00 +35°C° 0 mm 6 mps 749 mmHg 68%
    17:00 +34°C° 0.1 mm 5 mps 750 mmHg 72%
    18:00 +33°C° 0.1 mm 5 mps 751 mmHg 75%
    19:00 +30°C° 0.1 mm 5 mps 751 mmHg 79%
    20:00 +30°C° 0 mm 5 mps 752 mmHg 80%
    21:00 +30°C° 0 mm 5 mps 752 mmHg 82%
    22:00 +30°C° 0 mm 5 mps 752 mmHg 83%
    23:00 +30°C° 0 mm 5 mps 752 mmHg 83%

    24 March, Sunday

    Time Temperature Precipitation Wind Pressure Humidity
    00:00 +30°C° 0 mm 4 mps 752 mmHg 84%
    01:00 +30°C° 0 mm 4 mps 752 mmHg 84%
    02:00 +29°C° 0.9 mm 4 mps 752 mmHg 85%
    03:00 +29°C° 0.9 mm 5 mps 752 mmHg 86%
    04:00 +29°C° 0.9 mm 5 mps 751 mmHg 87%
    05:00 +28°C° 3 mm 5 mps 752 mmHg 87%
    06:00 +28°C° 3 mm 4 mps 753 mmHg 87%
    07:00 +28°C° 3 mm 4 mps 753 mmHg 88%
    08:00 +29°C° 0.9 mm 4 mps 753 mmHg 85%
    09:00 +30°C° 0.9 mm 3 mps 754 mmHg 82%
    10:00 +30°C° 0.9 mm 3 mps 754 mmHg 78%
    11:00 +31°C° 0 mm 3 mps 753 mmHg 74%
    12:00 +33°C° 0 mm 4 mps 752 mmHg 70%
    13:00 +34°C° 0 mm 4 mps 751 mmHg 66%
    14:00 +33°C° 0 mm 3 mps 751 mmHg 66%
    15:00 +33°C° 0 mm 3 mps 751 mmHg 66%
    16:00 +33°C° 0 mm 3 mps 751 mmHg 66%
    17:00 +31°C° 0 mm 2 mps 751 mmHg 69%
    18:00 +31°C° 0 mm 2 mps 752 mmHg 72%
    19:00 +30°C° 0 mm 2 mps 752 mmHg 76%
    20:00 +30°C° 0 mm 2 mps 752 mmHg 77%
    21:00 +29°C° 0 mm 2 mps 752 mmHg 78%
    22:00 +29°C° 0 mm 2 mps 753 mmHg 80%
    23:00 +29°C° 0 mm 2 mps 752 mmHg 80%
    Show more